Burlington, WA
on Tuesday, January 29, 2013

Tuesday
Previous Day Next Day
Daily Summary
 ActualAverage (KBLI)Record (KBLI)
Temperature
Mean Temperature °F 40°F  
Max Temperature 44°F 47°F 62°F (1992)
Min Temperature 39°F 33°F -2°F (1950)
Degree Days
Heating Degree Days 24 25  
Month to date heating degree days 748  
Cooling Degree Days 0 0  
Month to date cooling degree days 0  
Year to date cooling degree days 0  
Moisture
Dew Point 43°F   
Average Humidity 100    
Maximum Humidity 100    
Minimum Humidity 100    
Precipitation
Precipitation 0.69 in 0.14 in 0.82 in (1960)
Month to date precipitation 4.39  
Year to date precipitation 4.39  
Wind
Wind Speed 3 mph   
Max Wind Speed 8 mph   
Max Gust Speed mph   
Visibility 7 miles   
Events     

Key: T is trace of precipitation, MM is missing value
Source: NWS Daily Summary
Time(PST)TemperatureDew PointHumidity Pressure Visibility Wind DirectionWind SpeedGust SpeedPrecipitationEvents Conditions
12:15 AM 44.6°F 44.6°F 100% 30.07 in 10.0 miles West 4.6 mph - 0.00 in   Overcast
12:35 AM 44.6°F 44.6°F 100% 30.07 in 10.0 miles West 4.6 mph - 0.00 in   Overcast
12:55 AM 44.6°F 44.6°F 100% 30.07 in 10.0 miles WNW 4.6 mph - 0.00 in   Overcast
1:15 AM 44.6°F 44.6°F 100% 30.08 in 10.0 miles Calm Calm - 0.00 in   Overcast
1:35 AM 44.6°F 44.6°F 100% 30.08 in 10.0 miles WSW 3.5 mph - 0.00 in   Overcast
1:55 AM 44.6°F 44.6°F 100% 30.09 in 10.0 miles West 3.5 mph - 0.00 in   Overcast
2:15 AM 44.6°F 44.6°F 100% 30.10 in 10.0 miles Calm Calm - 0.00 in   Overcast
2:35 AM 44.6°F 44.6°F 100% 30.10 in 10.0 miles WSW 3.5 mph - 0.00 in   Overcast
2:55 AM 44.6°F 44.6°F 100% 30.11 in 10.0 miles Calm Calm - 0.00 in   Overcast
3:15 AM 44.6°F 44.6°F 100% 30.12 in 10.0 miles Calm Calm - 0.00 in   Overcast
3:35 AM 42.8°F 42.8°F 100% 30.13 in 10.0 miles Calm Calm - 0.00 in   Overcast
3:55 AM 42.8°F 42.8°F 100% 30.13 in 10.0 miles ENE 3.5 mph - 0.00 in   Overcast
4:15 AM 41.0°F 41.0°F 100% 30.13 in 10.0 miles Calm Calm - 0.00 in   Overcast
4:55 AM 41.0°F 41.0°F 100% 30.15 in 8.0 miles Calm Calm - 0.00 in   Overcast
5:15 AM 41.0°F 41.0°F 100% 30.16 in 8.0 miles Calm Calm - 0.00 in   Overcast
5:35 AM 41.0°F 41.0°F 100% 30.17 in 6.0 miles Calm Calm - 0.00 in   Overcast
5:55 AM 41.0°F 41.0°F 100% 30.17 in 8.0 miles Calm Calm - 0.00 in   Overcast
6:15 AM 42.8°F 42.8°F 100% 30.18 in 10.0 miles Calm Calm - 0.00 in   Mostly Cloudy
6:35 AM 41.0°F 41.0°F 100% 30.18 in 8.0 miles Calm Calm - 0.00 in   Mostly Cloudy
6:55 AM 39.2°F 39.2°F 100% 30.19 in 7.0 miles North 3.5 mph - 0.00 in   Mostly Cloudy
7:15 AM 39.2°F 39.2°F 100% 30.19 in 10.0 miles ENE 3.5 mph - 0.00 in   Overcast
7:35 AM 39.2°F 39.2°F 100% 30.20 in 8.0 miles Calm Calm - 0.00 in   Mostly Cloudy
7:55 AM 39.2°F 39.2°F 100% 30.21 in 10.0 miles North 3.5 mph - 0.00 in   Mostly Cloudy
8:15 AM 39.2°F 39.2°F 100% 30.22 in 10.0 miles NNE 6.9 mph - 0.00 in   Overcast
8:35 AM 41.0°F 41.0°F 100% 30.23 in 10.0 miles NNE 6.9 mph - 0.00 in   Overcast
8:55 AM 41.0°F 41.0°F 100% 30.24 in 10.0 miles NE 4.6 mph - 0.00 in   Overcast
9:15 AM 41.0°F 41.0°F 100% 30.25 in 10.0 miles NE 5.8 mph - 0.00 in   Overcast
9:35 AM 42.8°F 42.8°F 100% 30.26 in 10.0 miles Calm Calm - 0.00 in   Overcast
9:55 AM 42.8°F 42.8°F 100% 30.27 in 10.0 miles NNE 4.6 mph - 0.00 in   Overcast
10:15 AM 41.0°F 41.0°F 100% 30.28 in 10.0 miles ENE 6.9 mph - 0.00 in   Overcast
10:35 AM 42.8°F 42.8°F 100% 30.28 in 10.0 miles NE 3.5 mph - 0.00 in   Overcast
11:15 AM 42.8°F 42.8°F 100% 30.29 in 10.0 miles NE 3.5 mph - 0.00 in   Overcast
11:35 AM 42.8°F 42.8°F 100% 30.30 in 10.0 miles Calm Calm - 0.00 in   Overcast
11:55 AM 42.8°F 42.8°F 100% 30.30 in 10.0 miles Calm Calm - 0.00 in   Overcast
12:15 PM 42.8°F 42.8°F 100% 30.30 in 7.0 miles Calm Calm - 0.00 in   Overcast
12:35 PM 42.8°F 42.8°F 100% 30.30 in 8.0 miles Calm Calm - 0.00 in   Overcast
1:15 PM 44.6°F 44.6°F 100% 30.30 in 9.0 miles ESE 4.6 mph - 0.00 in   Overcast
1:35 PM 42.8°F 42.8°F 100% 30.30 in 9.0 miles East 4.6 mph - 0.00 in   Overcast
2:15 PM 44.6°F 44.6°F 100% 30.30 in 5.0 miles SSE 8.1 mph - 0.00 in   Overcast
2:35 PM 44.6°F 44.6°F 100% 30.30 in 7.0 miles South 8.1 mph - 0.00 in   Overcast
2:55 PM 44.6°F 44.6°F 100% 30.31 in 5.0 miles SSE 8.1 mph - 0.01 in   Overcast
3:15 PM 44.6°F 44.6°F 100% 30.31 in 6.0 miles SSE 6.9 mph - 0.01 in   Overcast
3:35 PM 44.6°F 44.6°F 100% 30.32 in 2.5 miles South 4.6 mph - 0.03 in   Overcast
3:55 PM 44.6°F 44.6°F 100% 30.31 in 10.0 miles South 6.9 mph - 0.03 in   Overcast
4:15 PM 44.6°F 44.6°F 100% 30.31 in 10.0 miles SSE 6.9 mph - 0.00 in   Overcast
4:35 PM 44.6°F 44.6°F 100% 30.31 in 7.0 miles South 8.1 mph - 0.00 in   Overcast
4:55 PM 44.6°F 44.6°F 100% 30.33 in 1.5 miles SSW 4.6 mph - 0.04 in   Overcast
5:55 PM 42.8°F 42.8°F 100% 30.33 in 3.0 miles SE 8.1 mph - 0.14 in   Overcast
6:15 PM 42.8°F 42.8°F 100% 30.33 in 4.0 miles South 3.5 mph - 0.06 in   Overcast
6:35 PM 42.8°F 42.8°F 100% 30.33 in 4.0 miles SW 3.5 mph - 0.12 in   Overcast
6:55 PM 42.8°F 42.8°F 100% 30.33 in 5.0 miles SSE 5.8 mph - 0.18 in   Overcast
7:15 PM 42.8°F 42.8°F 100% 30.33 in 4.0 miles SE 4.6 mph - 0.05 in   Overcast
7:35 PM 42.8°F 42.8°F 100% 30.34 in 4.0 miles East 4.6 mph - 0.10 in   Overcast
7:55 PM 42.8°F 42.8°F 100% 30.33 in 4.0 miles East 5.8 mph - 0.14 in   Overcast
8:15 PM 42.8°F 42.8°F 100% 30.33 in 2.5 miles ENE 3.5 mph - 0.03 in   Overcast
8:35 PM 42.8°F 42.8°F 100% 30.33 in 3.0 miles Calm Calm - 0.04 in   Overcast
8:55 PM 42.8°F 42.8°F 100% 30.32 in 5.0 miles ENE 3.5 mph - 0.05 in   Overcast
9:15 PM 42.8°F 42.8°F 100% 30.32 in 2.5 miles ENE 4.6 mph - 0.01 in   Overcast
9:35 PM 42.8°F 42.8°F 100% 30.32 in 2.5 miles NE 4.6 mph - 0.02 in   Overcast
9:55 PM 41.0°F 41.0°F 100% 30.32 in 2.0 miles NE 5.8 mph - 0.05 in   Overcast
10:15 PM 41.0°F 41.0°F 100% 30.32 in 3.0 miles NE 4.6 mph - 0.01 in   Overcast
10:35 PM 41.0°F 41.0°F 100% 30.33 in 2.5 miles ENE 6.9 mph - 0.02 in   Overcast
10:55 PM 41.0°F 41.0°F 100% 30.32 in 2.5 miles Calm Calm - 0.03 in   Overcast
11:15 PM 41.0°F 41.0°F 100% 30.33 in 2.5 miles East 4.6 mph - 0.01 in   Overcast
11:55 PM 41.0°F 41.0°F 100% 30.33 in 2.5 miles ENE 4.6 mph - 0.02 in   Overcast
Moon Phase
Jan. 29 Feb. 03 Feb. 10 Feb. 17 Feb. 25
Sunrise:07:42 AM (PST) Moon Rise:08:25 PM (PST)1/29
Sunset:05:04 PM (PST) Moon Set:08:24 AM (PST)1/29

Copyright © 2014 The Weather Underground, Inc.